{"data":{"norad_id":66343,"intl_designator":"2025-253AA","name":"STARLINK-35467","alt_names":[],"object_type":"PAYLOAD","status":"ACTIVE","operator":null,"country":"US","launch_date":"2025-11-06","launch_site_code":"AFETR","launch_vehicle":null,"mission":null,"orbit_class":"UNKNOWN","rcs_meters":null,"size_class":null,"mass_kg":null,"dimensions":null,"purposes":["comms"],"wikipedia_slug":null,"has_3d_model":false,"image_url":null,"decayed_at":null,"tle_current":{"epoch":"2026-09-20T03:52:46.351776Z","epoch_age_seconds":122669,"freshness":"FRESH","line1":"1 66343U 25253AA  26263.16164759  .00017549  00000+0  64537-3 0  9990","line2":"2 66343  42.9986 194.4730 0001300 264.0231  96.0473 15.27597764 49984","mean_motion":15.27597764,"eccentricity":0.00013,"inclination_deg":42.9986,"raan_deg":194.473,"arg_perigee_deg":264.0231,"mean_anomaly_deg":96.0473,"bstar":0.00064537,"rev_number":4998,"period_min":94.265652512437,"perigee_km":482.10395747093,"apogee_km":483.88785202617,"semimajor_km":6861.1329047485,"source":"CELESTRAK","updated_at":"2026-09-21T09:00:35.877906Z"}}}